Weather History for KORE - October, 2011

Change the Weather History Date:

Wednesday, October 26, 2011

  Actual Average Record
Temperature  
Mean Temperature 38 °F -  
Max Temperature 45 °F 53 °F 73 °F (2010)
Min Temperature 30 °F 31 °F 23 °F (1997)
Degree Days  
Heating Degree Days 28    
Moisture  
Dew Point 40 °F    
Average Humidity 92    
Maximum Humidity 97    
Minimum Humidity 81    
Precipitation  
Precipitation 0.04 in - - ()
Sea Level Pressure  
Sea Level Pressure 29.87 in    
Wind  
Wind Speed 0 mph (North)    
Max Wind Speed 5 mph    
Max Gust Speed -    
Visibility 10 miles    
Events Rain    
Averages and records for this station are not official NWS values.
T = Trace of Precipitation, MM = Missing Value Source: NWS Daily Summary

Daily Weather History Graph

Daily Weather History Graph

Search for Another Location

Airport or City:

Trip Planner

Search our weather history database for the weather conditions in past years. The results will help you decide how hot, cold, wet, or windy it might be!

Date:

Astronomy

Oct. 26, 2011 Rise Set
Actual Time 7:15 AM EDT 5:50 PM EDT
Civil Twilight 6:46 AM EDT 6:19 PM EDT
Nautical Twilight 6:13 AM EDT 6:52 PM EDT
Astronomical Twilight 5:40 AM EDT 7:25 PM EDT
Moon 7:00 AM EDT (10/26) 5:29 PM EDT (10/26)
Length of Visible Light 11h 33m
Length of Day
10h 35m
Waning Crescent, 0% of the Moon is Illuminated
Oct 26
Waning Crescent
Oct 26
New
Nov 2
First Quarter
Nov 10
Full
Nov 18
Last Quarter

Hourly Weather History & Observations

Time (EDT) Temp. Windchill Dew Point Humidity Pressure Visibility Wind Dir Wind Speed Gust Speed Precip Events Conditions
12:52 AM 32.0 °F - 30.9 °F 96% 30.02 in 10.0 mi Calm Calm - N/A   Clear
1:52 AM 30.9 °F - 28.9 °F 92% 30.02 in 10.0 mi Calm Calm - N/A   Partly Cloudy
2:52 AM 34.0 °F - 33.1 °F 96% 30.01 in 10.0 mi Calm Calm - N/A   Overcast
3:52 AM 34.0 °F - 33.1 °F 96% 30.01 in 10.0 mi Calm Calm - N/A   Clear
4:52 AM 35.1 °F - 34.0 °F 96% 29.98 in 10.0 mi Calm Calm - N/A   Overcast
5:52 AM 36.0 °F - 35.1 °F 97% 29.97 in 10.0 mi Calm Calm - N/A   Overcast
6:52 AM 37.9 °F - 36.0 °F 93% 29.96 in 10.0 mi Calm Calm - N/A   Overcast
8:52 AM 39.9 °F - 37.9 °F 93% 29.96 in 10.0 mi Calm Calm - 0.01 in Rain Light Rain
9:52 AM 42.1 °F - 39.9 °F 92% 29.95 in 10.0 mi Calm Calm - 0.00 in Rain Light Rain
10:52 AM 42.1 °F - 39.9 °F 92% 29.94 in 10.0 mi Calm Calm - 0.01 in Rain Light Rain
11:52 AM 44.1 °F - 42.1 °F 93% 29.90 in 10.0 mi Calm Calm - 0.01 in Rain Light Rain
12:07 PM 44.6 °F 42.2 °F 42.8 °F 93% 29.91 in 10.0 mi WNW 4.6 mph - 0.01 in Rain Light Rain
12:52 PM 44.1 °F - 42.1 °F 93% 29.88 in 10.0 mi Calm Calm - 0.01 in   Overcast
1:12 PM 44.6 °F - 41.0 °F 87% 29.84 in 10.0 mi Calm Calm - N/A   Overcast
1:20 PM 44.6 °F - 39.2 °F 81% 29.84 in 10.0 mi Calm Calm - N/A   Overcast
1:29 PM 44.6 °F - 41.0 °F 87% 29.84 in 10.0 mi Calm Calm - N/A   Overcast
1:52 PM 45.0 °F - 39.9 °F 82% 29.85 in 10.0 mi Calm Calm - N/A   Overcast
2:52 PM 45.0 °F - 41.0 °F 86% 29.83 in 10.0 mi Calm Calm - N/A   Overcast
3:18 PM 44.6 °F - 42.8 °F 93% 29.81 in 10.0 mi Calm Calm - N/A   Overcast
4:52 PM 45.0 °F - 42.1 °F 90% 29.81 in 10.0 mi Calm Calm - N/A   Overcast
5:24 PM 44.6 °F 42.2 °F 42.8 °F 93% 29.80 in 10.0 mi North 4.6 mph - N/A   Overcast
5:33 PM 44.6 °F 43.1 °F 42.8 °F 93% 29.79 in 10.0 mi NNE 3.5 mph - N/A   Overcast
5:52 PM 45.0 °F - 43.0 °F 93% 29.80 in 10.0 mi Calm Calm - N/A   Overcast
6:26 PM 44.6 °F - 42.8 °F 93% 29.80 in 10.0 mi Calm Calm - N/A   Overcast
6:52 PM 45.0 °F - 43.0 °F 93% 29.81 in 10.0 mi Calm Calm - N/A   Overcast
7:52 PM 45.0 °F - 43.0 °F 93% 29.80 in 10.0 mi Calm Calm - N/A   Overcast
8:52 PM 45.0 °F - 43.0 °F 93% 29.79 in 10.0 mi Calm Calm - N/A   Overcast
9:09 PM 44.6 °F 43.1 °F 42.8 °F 93% 29.78 in 10.0 mi North 3.5 mph - N/A   Overcast
9:52 PM 45.0 °F - 43.0 °F 93% 29.80 in 10.0 mi Calm Calm - N/A   Overcast
10:00 PM 44.6 °F - 42.8 °F 93% 29.78 in 10.0 mi Calm Calm - N/A   Overcast
10:52 PM 45.0 °F - 43.0 °F 93% 29.79 in 10.0 mi Calm Calm - N/A   Overcast
11:01 PM 44.6 °F - 42.8 °F 93% 29.78 in 9.0 mi Calm Calm - N/A   Overcast
11:52 PM 44.1 °F - 42.1 °F 93% 29.77 in 10.0 mi Calm Calm - 0.00 in   Overcast